| time (UTC) | temp F | wind direction | speed MPH | gust MPH | rain 1hr in | rain 24hr in | rain mn in | humidity % | barometer mb |
| 20260504185035 | 62 | 141 | 7.0 | 21.0 | 0.00 | 0.00 | 0.00 | 41 | 1006.9 |
| 20260504184545 | 62 | 201 | 8.0 | 21.0 | 0.00 | 0.00 | 0.00 | 42 | 1007.1 |
| 20260504184033 | 60 | 128 | 8.0 | 20.0 | 0.00 | 0.00 | 0.00 | 42 | 1006.8 |
| 20260504183532 | 61 | 273 | 6.0 | 20.0 | 0.00 | 0.00 | 0.00 | 42 | 1006.8 |
| 20260504183044 | 61 | 227 | 7.0 | 23.0 | 0.00 | 0.00 | 0.00 | 42 | 1006.9 |
| 20260504182531 | 60 | 161 | 11.0 | 23.0 | 0.00 | 0.00 | 0.00 | 43 | 1006.8 |
| 20260504182030 | 61 | 285 | 11.0 | 19.0 | 0.00 | 0.00 | 0.00 | 42 | 1006.9 |
| 20260504181548 | 61 | 213 | 7.0 | 19.0 | 0.00 | 0.00 | 0.00 | 43 | 1006.9 |
| 20260504181036 | 61 | 172 | 5.0 | 25.0 | 0.00 | 0.00 | 0.00 | 43 | 1007.0 |
| 20260504180532 | 59 | 243 | 10.0 | 25.0 | 0.00 | 0.00 | 0.00 | 44 | 1007.0 |
| 20260504180050 | 60 | 215 | 10.0 | 24.0 | 0.00 | 0.00 | 0.00 | 43 | 1006.9 |
| 20260504175533 | 60 | 211 | 9.0 | 22.0 | 0.00 | 0.00 | 0.00 | 44 | 1007.1 |
| 20260504175031 | 59 | 224 | 9.0 | 22.0 | 0.00 | 0.00 | 0.00 | 44 | 1006.9 |
| 20260504174543 | 58 | 209 | 10.0 | 19.0 | 0.00 | 0.00 | 0.00 | 44 | 1006.9 |
| 20260504174032 | 60 | 188 | 9.0 | 19.0 | 0.00 | 0.00 | 0.00 | 43 | 1007.0 |
| 20260504173531 | 59 | 170 | 7.0 | 28.0 | 0.00 | 0.00 | 0.00 | 44 | 1007.2 |
| 20260504173046 | 58 | 240 | 12.0 | 28.0 | 0.00 | 0.00 | 0.00 | 45 | 1007.0 |
| 20260504172530 | 58 | 223 | 10.0 | 27.0 | 0.00 | 0.00 | 0.00 | 44 | 1007.1 |
| 20260504172030 | 58 | 257 | 10.0 | 19.0 | 0.00 | 0.00 | 0.00 | 44 | 1007.1 |
| 20260504171546 | 59 | 291 | 9.0 | 20.0 | 0.00 | 0.00 | 0.00 | 44 | 1007.2 |
| 20260504171031 | 59 | 279 | 8.0 | 23.0 | 0.00 | 0.00 | 0.00 | 45 | 1007.2 |
| 20260504170530 | 58 | 267 | 10.0 | 23.0 | 0.00 | 0.00 | 0.00 | 45 | 1007.1 |
| 20260504151030 | 55 | 246 | 8.0 | 19.0 | 0.00 | 0.00 | 0.00 | 49 | 1007.6 |
| 20260504150533 | 55 | 249 | 8.0 | 18.0 | 0.00 | 0.00 | 0.00 | 50 | 1007.7 |
| 20260504141033 | 51 | 236 | 12.0 | 23.0 | 0.00 | 0.00 | 0.00 | 51 | 1007.7 |
| 20260504140529 | 52 | 261 | 10.0 | 23.0 | 0.00 | 0.00 | 0.00 | 51 | 1007.7 |
| 20260504130530 | 49 | 214 | 8.0 | 24.0 | 0.00 | 0.00 | 0.00 | 54 | 1007.9 |
| 20260504110529 | 43 | 211 | 9.0 | 27.0 | 0.00 | 0.00 | 0.00 | 63 | 1007.8 |
| 20260504100528 | 42 | 229 | 8.0 | 17.0 | 0.00 | 0.00 | 0.00 | 66 | 1007.7 |
| 20260504081554 | 41 | 211 | 7.0 | 13.0 | 0.00 | 0.00 | 0.00 | 77 | 1008.1 |
| 20260504081032 | 41 | 275 | 4.0 | 13.0 | 0.00 | 0.00 | 0.00 | 79 | 1008.1 |
| 20260504080532 | 41 | 241 | 4.0 | 13.0 | 0.00 | 0.00 | 0.00 | 79 | 1008.2 |
| 20260504080104 | 41 | 257 | 4.0 | 13.0 | 0.00 | 0.00 | 0.00 | 79 | 1008.0 |
| 20260504050531 | 40 | 272 | 4.0 | 12.0 | 0.00 | 0.00 | 0.00 | 74 | 1008.5 |
| 20260504045530 | 40 | 238 | 5.0 | 12.0 | 0.00 | 0.00 | 0.00 | 69 | 1008.4 |
| 20260504045030 | 40 | 224 | 5.0 | 11.0 | 0.00 | 0.00 | 0.00 | 68 | 1008.5 |
| 20260504044542 | 40 | 241 | 5.0 | 13.0 | 0.00 | 0.00 | 0.00 | 67 | 1008.5 |
| 20260504044030 | 40 | 270 | 4.0 | 13.0 | 0.00 | 0.00 | 0.00 | 66 | 1008.5 |
| 20260504043530 | 40 | 219 | 3.0 | 12.0 | 0.00 | 0.00 | 0.00 | 66 | 1008.5 |
| 20260504043043 | 40 | 257 | 3.0 | 12.0 | 0.00 | 0.00 | 0.00 | 66 | 1008.4 |
| 20260504042531 | 40 | 223 | 4.0 | 11.0 | 0.00 | 0.00 | 0.00 | 65 | 1008.5 |
| 20260504042030 | 40 | 205 | 4.0 | 11.0 | 0.00 | 0.00 | 0.00 | 65 | 1008.6 |
| 20260504041543 | 40 | 242 | 4.0 | 11.0 | 0.00 | 0.00 | 0.00 | 65 | 1008.4 |
| 20260504041028 | 40 | 235 | 4.0 | 18.0 | 0.00 | 0.00 | 0.00 | 65 | 1008.4 |
| 20260504040528 | 40 | 245 | 5.0 | 18.0 | 0.00 | 0.00 | 0.00 | 64 | 1008.4 |
| 20260504040100 | 40 | 261 | 6.0 | 17.0 | 0.00 | 0.00 | 0.00 | 63 | 1008.1 |
| 20260504035530 | 40 | 243 | 3.0 | 12.0 | 0.00 | 0.00 | 0.00 | 63 | 1008.3 |
| 20260504035028 | 40 | 234 | 5.0 | 12.0 | 0.00 | 0.00 | 0.00 | 62 | 1008.2 |
| 20260504034538 | 40 | 191 | 6.0 | 10.0 | 0.00 | 0.00 | 0.00 | 61 | 1008.2 |
| 20260504034028 | 40 | 257 | 4.0 | 16.0 | 0.00 | 0.00 | 0.00 | 60 | 1008.1 |
| 20260504033529 | 40 | 252 | 5.0 | 16.0 | 0.00 | 0.00 | 0.00 | 59 | 1007.9 |
| 20260504033045 | 40 | 246 | 5.0 | 12.0 | 0.00 | 0.00 | 0.00 | 58 | 1007.9 |
| 20260504032550 | 40 | 279 | 4.0 | 12.0 | 0.00 | 0.00 | 0.00 | 56 | 1007.9 |
| 20260504032032 | 40 | 238 | 5.0 | 12.0 | 0.00 | 0.00 | 0.00 | 55 | 1007.9 |
| 20260504031543 | 40 | 261 | 5.0 | 16.0 | 0.00 | 0.00 | 0.00 | 54 | 1008.0 |
| 20260504031031 | 40 | 257 | 7.0 | 16.0 | 0.00 | 0.00 | 0.00 | 54 | 1008.0 |
| 20260504030534 | 39 | 241 | 5.0 | 13.0 | 0.00 | 0.00 | 0.00 | 54 | 1007.9 |
| 20260504030044 | 39 | 254 | 5.0 | 13.0 | 0.00 | 0.00 | 0.00 | 54 | 1008.0 |
| 20260504025532 | 39 | 224 | 4.0 | 10.0 | 0.00 | 0.00 | 0.00 | 54 | 1007.9 |
| 20260504025033 | 39 | 239 | 5.0 | 11.0 | 0.00 | 0.00 | 0.00 | 54 | 1007.9 |
| 20260504024542 | 39 | 244 | 5.0 | 11.0 | 0.00 | 0.00 | 0.00 | 53 | 1007.8 |
| 20260504024033 | 39 | 259 | 5.0 | 11.0 | 0.00 | 0.00 | 0.00 | 53 | 1007.9 |
| 20260504023532 | 39 | 252 | 4.0 | 10.0 | 0.00 | 0.00 | 0.00 | 53 | 1008.0 |
| 20260504023053 | 39 | 219 | 4.0 | 10.0 | 0.00 | 0.00 | 0.00 | 53 | 1008.1 |
| 20260504022535 | 39 | 251 | 4.0 | 14.0 | 0.00 | 0.00 | 0.00 | 53 | 1008.2 |
| 20260504022031 | 39 | 247 | 5.0 | 14.0 | 0.00 | 0.00 | 0.00 | 53 | 1008.2 |
| 20260504021545 | 39 | 253 | 6.0 | 12.0 | 0.00 | 0.00 | 0.00 | 53 | 1008.2 |
| 20260504021031 | 39 | 238 | 5.0 | 15.0 | 0.00 | 0.00 | 0.00 | 52 | 1008.1 |
| 20260504020531 | 39 | 245 | 4.0 | 15.0 | 0.00 | 0.00 | 0.00 | 53 | 1008.1 |
| 20260504020045 | 40 | 244 | 4.0 | 15.0 | 0.00 | 0.00 | 0.00 | 52 | 1008.2 |
| 20260504015531 | 40 | 235 | 5.0 | 15.0 | 0.00 | 0.00 | 0.00 | 52 | 1008.1 |
| 20260504015032 | 40 | 265 | 5.0 | 13.0 | 0.00 | 0.00 | 0.00 | 51 | 1008.1 |
| 20260504014556 | 40 | 224 | 5.0 | 16.0 | 0.00 | 0.00 | 0.00 | 51 | 1008.0 |
| 20260504014031 | 40 | 251 | 6.0 | 16.0 | 0.00 | 0.00 | 0.00 | 51 | 1008.0 |
| 20260504013532 | 40 | 253 | 5.0 | 12.0 | 0.00 | 0.00 | 0.00 | 51 | 1007.9 |
| 20260504013044 | 40 | 240 | 6.0 | 12.0 | 0.00 | 0.00 | 0.00 | 50 | 1007.9 |
| 20260504012536 | 40 | 263 | 6.0 | 14.0 | 0.00 | 0.00 | 0.00 | 50 | 1007.7 |
| 20260504012032 | 40 | 258 | 7.0 | 14.0 | 0.00 | 0.00 | 0.00 | 49 | 1007.8 |
| 20260504011541 | 40 | 265 | 7.0 | 13.0 | 0.00 | 0.00 | 0.00 | 49 | 1007.7 |
| 20260504011032 | 40 | 255 | 7.0 | 12.0 | 0.00 | 0.00 | 0.00 | 49 | 1007.7 |
| 20260504010531 | 40 | 245 | 6.0 | 13.0 | 0.00 | 0.00 | 0.00 | 49 | 1007.7 |
| 20260504010050 | 40 | 232 | 5.0 | 13.0 | 0.00 | 0.00 | 0.00 | 48 | 1007.6 |
| 20260504005535 | 40 | 242 | 5.0 | 12.0 | 0.00 | 0.00 | 0.00 | 47 | 1007.6 |
| 20260504005032 | 40 | 267 | 7.0 | 12.0 | 0.00 | 0.00 | 0.00 | 46 | 1007.5 |
| 20260504004550 | 40 | 245 | 6.0 | 13.0 | 0.00 | 0.00 | 0.00 | 47 | 1007.3 |
| 20260504004031 | 41 | 240 | 6.0 | 17.0 | 0.00 | 0.00 | 0.00 | 46 | 1007.4 |
| 20260504003534 | 41 | 259 | 7.0 | 17.0 | 0.00 | 0.00 | 0.00 | 45 | 1007.2 |
| 20260504003054 | 41 | 165 | 7.0 | 14.0 | 0.00 | 0.00 | 0.00 | 44 | 1007.2 |
| 20260504002529 | 41 | 257 | 6.0 | 14.0 | 0.00 | 0.00 | 0.00 | 45 | 1007.1 |
| 20260504002030 | 41 | 253 | 5.0 | 14.0 | 0.00 | 0.00 | 0.00 | 44 | 1007.1 |
| 20260504001600 | 41 | 261 | 4.0 | 10.0 | 0.00 | 0.00 | 0.00 | 45 | 1007.0 |
| 20260504001031 | 41 | 238 | 4.0 | 9.0 | 0.00 | 0.00 | 0.00 | 45 | 1007.1 |
| 20260504000530 | 41 | 236 | 3.0 | 9.0 | 0.00 | 0.00 | 0.00 | 46 | 1006.9 |
| 20260504000052 | 41 | 250 | 3.0 | 12.0 | 0.00 | 0.00 | 0.00 | 46 | 1007.0 |
| 20260503235529 | 41 | 257 | 3.0 | 12.0 | 0.00 | 0.00 | 0.00 | 45 | 1006.8 |
| 20260503235032 | 42 | 259 | 3.0 | 9.0 | 0.00 | 0.00 | 0.00 | 46 | 1006.8 |
| 20260503234543 | 42 | 248 | 5.0 | 10.0 | 0.00 | 0.00 | 0.00 | 46 | 1006.6 |
| 20260503234029 | 42 | 247 | 4.0 | 11.0 | 0.00 | 0.00 | 0.00 | 45 | 1006.6 |
| 20260503233531 | 43 | 267 | 5.0 | 14.0 | 0.00 | 0.00 | 0.00 | 44 | 1006.6 |
| 20260503233045 | 43 | 259 | 5.0 | 14.0 | 0.00 | 0.00 | 0.00 | 43 | 1006.6 |
| 20260503232532 | 43 | 211 | 5.0 | 12.0 | 0.00 | 0.00 | 0.00 | 44 | 1006.6 |
| 20260503232030 | 43 | 249 | 5.0 | 12.0 | 0.00 | 0.00 | 0.00 | 44 | 1006.5 |
| 20260503231546 | 43 | 254 | 6.0 | 12.0 | 0.00 | 0.00 | 0.00 | 42 | 1006.4 |
| 20260503231030 | 44 | 246 | 6.0 | 12.0 | 0.00 | 0.00 | 0.00 | 43 | 1006.4 |
| 20260503230530 | 44 | 257 | 6.0 | 12.0 | 0.00 | 0.00 | 0.00 | 42 | 1006.4 |
| 20260503230045 | 44 | 261 | 6.0 | 13.0 | 0.00 | 0.00 | 0.00 | 43 | 1006.5 |
| 20260503225529 | 44 | 229 | 4.0 | 13.0 | 0.00 | 0.00 | 0.00 | 44 | 1006.4 |
| 20260503225033 | 44 | 265 | 6.0 | 13.0 | 0.00 | 0.00 | 0.00 | 43 | 1006.4 |
| 20260503224545 | 44 | 240 | 4.0 | 12.0 | 0.00 | 0.00 | 0.00 | 44 | 1006.4 |
| 20260503224029 | 43 | 262 | 5.0 | 13.0 | 0.00 | 0.00 | 0.00 | 45 | 1006.4 |
| 20260503223531 | 43 | 269 | 7.0 | 13.0 | 0.00 | 0.00 | 0.00 | 45 | 1006.4 |
| 20260503223044 | 43 | 265 | 4.0 | 19.0 | 0.00 | 0.00 | 0.00 | 45 | 1006.4 |
| 20260503222530 | 43 | 244 | 8.0 | 19.0 | 0.00 | 0.00 | 0.00 | 45 | 1006.4 |
| 20260503222035 | 43 | 238 | 7.0 | 18.0 | 0.00 | 0.00 | 0.00 | 44 | 1006.2 |
| 20260503221546 | 43 | 276 | 7.0 | 18.0 | 0.00 | 0.00 | 0.00 | 44 | 1006.4 |
| 20260503221032 | 44 | 236 | 9.0 | 18.0 | 0.00 | 0.00 | 0.00 | 44 | 1006.4 |
| 20260503220533 | 44 | 269 | 7.0 | 14.0 | 0.00 | 0.00 | 0.00 | 45 | 1006.3 |
| 20260503220049 | 44 | 214 | 7.0 | 14.0 | 0.00 | 0.00 | 0.00 | 45 | 1006.4 |
| 20260503215528 | 44 | 263 | 7.0 | 24.0 | 0.00 | 0.00 | 0.00 | 44 | 1006.5 |
| 20260503215031 | 44 | 235 | 6.0 | 24.0 | 0.00 | 0.00 | 0.00 | 45 | 1006.4 |
| 20260503214545 | 44 | 229 | 7.0 | 17.0 | 0.00 | 0.00 | 0.00 | 44 | 1006.4 |
| 20260503214031 | 45 | 221 | 7.0 | 17.0 | 0.00 | 0.00 | 0.00 | 44 | 1006.4 |
| 20260503213528 | 45 | 235 | 8.0 | 17.0 | 0.00 | 0.00 | 0.00 | 43 | 1006.4 |
| 20260503213045 | 45 | 254 | 6.0 | 14.0 | 0.00 | 0.00 | 0.00 | 46 | 1006.5 |
| 20260503212529 | 44 | 225 | 6.0 | 17.0 | 0.00 | 0.00 | 0.00 | 45 | 1006.4 |
| 20260503212030 | 44 | 262 | 6.0 | 17.0 | 0.00 | 0.00 | 0.00 | 47 | 1006.4 |
| 20260503211544 | 45 | 248 | 8.0 | 17.0 | 0.00 | 0.00 | 0.00 | 43 | 1006.4 |
| 20260503211032 | 46 | 182 | 5.0 | 16.0 | 0.00 | 0.00 | 0.00 | 45 | 1006.3 |
| 20260503210533 | 44 | 238 | 6.0 | 16.0 | 0.00 | 0.00 | 0.00 | 45 | 1006.2 |
| 20260503210043 | 45 | 242 | 6.0 | 16.0 | 0.00 | 0.00 | 0.00 | 46 | 1006.1 |
| 20260503205529 | 44 | 275 | 8.0 | 16.0 | 0.00 | 0.00 | 0.00 | 45 | 1006.2 |
| 20260503205029 | 44 | 292 | 4.0 | 15.0 | 0.00 | 0.00 | 0.00 | 49 | 1006.2 |
| 20260503204543 | 42 | 246 | 6.0 | 15.0 | 0.00 | 0.00 | 0.00 | 50 | 1006.4 |
| 20260503204031 | 42 | 263 | 8.0 | 14.0 | 0.00 | 0.00 | 0.00 | 48 | 1006.2 |
| 20260503203534 | 43 | 238 | 8.0 | 13.0 | 0.00 | 0.00 | 0.00 | 48 | 1006.3 |
| 20260503203040 | 44 | 296 | 6.0 | 20.0 | 0.00 | 0.00 | 0.00 | 47 | 1006.3 |
| 20260503202532 | 45 | 250 | 6.0 | 20.0 | 0.00 | 0.00 | 0.00 | 47 | 1006.3 |
| 20260503202029 | 45 | 202 | 7.0 | 16.0 | 0.00 | 0.00 | 0.00 | 47 | 1006.2 |
| 20260503201546 | 44 | 257 | 6.0 | 16.0 | 0.00 | 0.00 | 0.00 | 46 | 1006.4 |
| 20260503201031 | 45 | 239 | 6.0 | 17.0 | 0.00 | 0.00 | 0.00 | 46 | 1006.1 |
| 20260503200528 | 44 | 266 | 8.0 | 18.0 | 0.00 | 0.00 | 0.00 | 46 | 1006.2 |
| 20260503200050 | 44 | 227 | 8.0 | 18.0 | 0.00 | 0.00 | 0.00 | 46 | 1006.3 |
| 20260503195531 | 43 | 201 | 7.0 | 15.0 | 0.00 | 0.00 | 0.00 | 47 | 1006.2 |
| 20260503195034 | 44 | 223 | 6.0 | 20.0 | 0.00 | 0.00 | 0.00 | 47 | 1006.4 |
| 20260503194543 | 44 | 258 | 7.0 | 20.0 | 0.00 | 0.00 | 0.00 | 48 | 1006.3 |
| 20260503194029 | 44 | 252 | 11.0 | 20.0 | 0.00 | 0.00 | 0.00 | 45 | 1006.3 |
| 20260503193533 | 45 | 244 | 7.0 | 15.0 | 0.00 | 0.00 | 0.00 | 47 | 1006.2 |
| 20260503193045 | 43 | 235 | 8.0 | 16.0 | 0.00 | 0.00 | 0.00 | 48 | 1006.4 |
| 20260503192529 | 42 | 257 | 7.0 | 20.0 | 0.00 | 0.00 | 0.00 | 49 | 1006.5 |
| 20260503192031 | 42 | 250 | 7.0 | 20.0 | 0.00 | 0.00 | 0.00 | 48 | 1006.6 |
| 20260503191549 | 43 | 257 | 7.0 | 19.0 | 0.00 | 0.00 | 0.00 | 48 | 1006.4 |
| 20260503191031 | 43 | 282 | 10.0 | 20.0 | 0.00 | 0.00 | 0.00 | 46 | 1006.4 |
| 20260503190531 | 42 | 241 | 10.0 | 20.0 | 0.00 | 0.00 | 0.00 | 48 | 1006.5 |
| 20260503190043 | 42 | 242 | 6.0 | 17.0 | 0.00 | 0.00 | 0.00 | 48 | 1006.4 |
| 20260503185530 | 43 | 254 | 8.0 | 17.0 | 0.00 | 0.00 | 0.00 | 49 | 1006.5 |